When you browse on this site, cookies collect data to enhance your experience and personalize the content and advertising you see.
Visit our Privacy Policy to learn more. By continuing to use the site, you agree to this use of cookies and data.

Hourly Weather Al-Basra

Today, 28 September, Monday

Time Temperature Precipitation Wind Pressure Humidity
00:00 +34°C° 0 mm 7 mps 751 mmHg 23%
01:00 +33°C° 0 mm 6 mps 751 mmHg 24%
02:00 +33°C° 0 mm 6 mps 751 mmHg 25%
03:00 +32°C° 0 mm 6 mps 750 mmHg 26%
04:00 +30°C° 0 mm 6 mps 751 mmHg 28%
05:00 +29°C° 0 mm 6 mps 751 mmHg 30%
06:00 +29°C° 0 mm 6 mps 752 mmHg 33%
07:00 +32°C° 0 mm 6 mps 752 mmHg 29%
08:00 +34°C° 0 mm 7 mps 751 mmHg 26%
09:00 +36°C° 0 mm 7 mps 752 mmHg 22%
10:00 +39°C° 0 mm 7 mps 751 mmHg 19%
11:00 +41°C° 0 mm 7 mps 751 mmHg 16%
12:00 +44°C° 0 mm 7 mps 751 mmHg 12%
13:00 +45°C° 0 mm 6 mps 750 mmHg 11%
14:00 +45°C° 0 mm 5 mps 750 mmHg 10%
15:00 +45°C° 0 mm 5 mps 749 mmHg 10%
16:00 +43°C° 0 mm 5 mps 749 mmHg 11%
17:00 +41°C° 0 mm 4 mps 749 mmHg 12%
18:00 +38°C° 0 mm 4 mps 749 mmHg 13%
19:00 +37°C° 0 mm 4 mps 749 mmHg 13%
20:00 +36°C° 0 mm 5 mps 749 mmHg 14%
21:00 +35°C° 0 mm 5 mps 749 mmHg 15%
22:00 +34°C° 0 mm 5 mps 749 mmHg 16%
23:00 +33°C° 0 mm 5 mps 749 mmHg 17%

Tomorrow, 29 September, Tuesday

Time Temperature Precipitation Wind Pressure Humidity
00:00 +33°C° 0 mm 5 mps 749 mmHg 18%
01:00 +32°C° 0 mm 5 mps 749 mmHg 19%
02:00 +32°C° 0 mm 5 mps 749 mmHg 21%
03:00 +30°C° 0 mm 4 mps 749 mmHg 23%
04:00 +29°C° 0 mm 4 mps 749 mmHg 23%
05:00 +29°C° 0 mm 4 mps 749 mmHg 24%
06:00 +28°C° 0 mm 4 mps 750 mmHg 24%
07:00 +32°C° 0 mm 4 mps 750 mmHg 21%
08:00 +35°C° 0 mm 3 mps 750 mmHg 18%
09:00 +37°C° 0 mm 3 mps 750 mmHg 15%
10:00 +40°C° 0 mm 3 mps 750 mmHg 13%
11:00 +43°C° 0 mm 3 mps 750 mmHg 11%
12:00 +45°C° 0 mm 3 mps 750 mmHg 9%
13:00 +45°C° 0 mm 3 mps 749 mmHg 8%
14:00 +45°C° 0 mm 2 mps 748 mmHg 8%
15:00 +44°C° 0 mm 1 mps 748 mmHg 8%
16:00 +42°C° 0 mm 2 mps 748 mmHg 11%
17:00 +39°C° 0 mm 3 mps 748 mmHg 14%
18:00 +36°C° 0 mm 4 mps 748 mmHg 17%
19:00 +35°C° 0 mm 4 mps 748 mmHg 22%
20:00 +34°C° 0 mm 4 mps 748 mmHg 27%
21:00 +32°C° 0 mm 4 mps 749 mmHg 33%
22:00 +32°C° 0 mm 4 mps 749 mmHg 38%
23:00 +30°C° 0 mm 4 mps 749 mmHg 42%

Day after tomorrow, 30 September, Wednesday

Time Temperature Precipitation Wind Pressure Humidity
00:00 +30°C° 0 mm 4 mps 749 mmHg 47%
01:00 +29°C° 0 mm 4 mps 748 mmHg 51%
02:00 +29°C° 0 mm 4 mps 748 mmHg 55%
03:00 +29°C° 0 mm 4 mps 748 mmHg 58%
04:00 +28°C° 0 mm 4 mps 749 mmHg 59%
05:00 +28°C° 0 mm 3 mps 749 mmHg 60%
06:00 +27°C° 0 mm 3 mps 749 mmHg 61%
07:00 +30°C° 0 mm 3 mps 750 mmHg 52%
08:00 +33°C° 0 mm 3 mps 750 mmHg 44%
09:00 +36°C° 0 mm 4 mps 750 mmHg 36%
10:00 +38°C° 0 mm 4 mps 750 mmHg 30%
11:00 +41°C° 0 mm 4 mps 750 mmHg 25%
12:00 +43°C° 0 mm 4 mps 749 mmHg 19%
13:00 +43°C° 0 mm 4 mps 749 mmHg 18%
14:00 +43°C° 0 mm 5 mps 748 mmHg 18%
15:00 +43°C° 0 mm 5 mps 748 mmHg 18%
16:00 +41°C° 0 mm 5 mps 748 mmHg 23%
17:00 +39°C° 0 mm 5 mps 748 mmHg 29%
18:00 +35°C° 0 mm 5 mps 748 mmHg 34%
19:00 +34°C° 0 mm 5 mps 749 mmHg 38%
20:00 +33°C° 0 mm 4 mps 749 mmHg 41%
21:00 +32°C° 0 mm 4 mps 750 mmHg 45%
22:00 +30°C° 0 mm 3 mps 750 mmHg 50%
23:00 +30°C° 0 mm 3 mps 750 mmHg 54%

1 October, Thursday

Time Temperature Precipitation Wind Pressure Humidity
00:00 +30°C° 0 mm 3 mps 750 mmHg 59%
01:00 +29°C° 0 mm 2 mps 750 mmHg 64%
02:00 +28°C° 0 mm 2 mps 750 mmHg 69%
03:00 +28°C° 0 mm 2 mps 750 mmHg 74%
04:00 +28°C° 0 mm 2 mps 750 mmHg 77%
05:00 +28°C° 0 mm 2 mps 751 mmHg 80%
06:00 +28°C° 0 mm 2 mps 751 mmHg 83%
07:00 +30°C° 0 mm 3 mps 752 mmHg 72%
08:00 +34°C° 0 mm 3 mps 752 mmHg 61%
09:00 +36°C° 0 mm 4 mps 752 mmHg 49%
10:00 +38°C° 0 mm 4 mps 752 mmHg 40%
11:00 +41°C° 0 mm 4 mps 752 mmHg 31%
12:00 +43°C° 0 mm 3 mps 752 mmHg 21%
13:00 +43°C° 0 mm 4 mps 751 mmHg 20%
14:00 +43°C° 0 mm 4 mps 751 mmHg 19%
15:00 +44°C° 0 mm 4 mps 750 mmHg 17%
16:00 +41°C° 0 mm 5 mps 751 mmHg 26%
17:00 +39°C° 0 mm 6 mps 751 mmHg 35%
18:00 +36°C° 0 mm 6 mps 751 mmHg 44%
19:00 +35°C° 0 mm 5 mps 751 mmHg 52%
20:00 +34°C° 0 mm 5 mps 752 mmHg 61%
21:00 +32°C° 0 mm 4 mps 752 mmHg 69%
22:00 +32°C° 0 mm 4 mps 752 mmHg 71%
23:00 +31°C° 0 mm 3 mps 752 mmHg 73%

2 October, Friday

Time Temperature Precipitation Wind Pressure Humidity
00:00 +30°C° 0 mm 3 mps 752 mmHg 76%
01:00 +30°C° 0 mm 3 mps 752 mmHg 76%
02:00 +29°C° 0 mm 2 mps 752 mmHg 77%
03:00 +29°C° 0 mm 2 mps 752 mmHg 78%
04:00 +28°C° 0 mm 2 mps 752 mmHg 79%
05:00 +28°C° 0 mm 2 mps 753 mmHg 81%
06:00 +28°C° 0 mm 1 mps 753 mmHg 82%
07:00 +30°C° 0 mm 2 mps 754 mmHg 71%
08:00 +32°C° 0 mm 2 mps 754 mmHg 59%
09:00 +36°C° 0 mm 2 mps 755 mmHg 47%
10:00 +38°C° 0 mm 2 mps 754 mmHg 39%
11:00 +39°C° 0 mm 1 mps 754 mmHg 30%
12:00 +38°C° 0 mm 0 mps 754 mmHg 22%
13:00 +39°C° 0 mm 0 mps 753 mmHg 19%
14:00 +39°C° 0 mm 0 mps 753 mmHg 17%
15:00 +40°C° 0 mm 0 mps 752 mmHg 14%
16:00 +41°C° 0 mm 1 mps 752 mmHg 17%
17:00 +40°C° 0 mm 3 mps 752 mmHg 20%
18:00 +38°C° 0 mm 4 mps 752 mmHg 22%
19:00 +37°C° 0 mm 3 mps 752 mmHg 25%
20:00 +36°C° 0 mm 3 mps 753 mmHg 28%
21:00 +34°C° 0 mm 2 mps 753 mmHg 31%
22:00 +34°C° 0 mm 2 mps 753 mmHg 33%
23:00 +32°C° 0 mm 2 mps 753 mmHg 35%

3 October, Saturday

Time Temperature Precipitation Wind Pressure Humidity
00:00 +32°C° 0 mm 2 mps 753 mmHg 37%
01:00 +31°C° 0 mm 2 mps 753 mmHg 37%
02:00 +31°C° 0 mm 2 mps 752 mmHg 37%
03:00 +30°C° 0 mm 2 mps 752 mmHg 38%
04:00 +30°C° 0 mm 1 mps 753 mmHg 38%
05:00 +29°C° 0 mm 1 mps 753 mmHg 38%
06:00 +29°C° 0 mm 1 mps 753 mmHg 38%
07:00 +32°C° 0 mm 1 mps 753 mmHg 33%
08:00 +33°C° 0 mm 0 mps 754 mmHg 27%
09:00 +36°C° 0 mm 0 mps 754 mmHg 21%
10:00 +41°C° 0 mm 1 mps 753 mmHg 18%
11:00 +42°C° 0 mm 2 mps 753 mmHg 15%
12:00 +44°C° 0 mm 3 mps 753 mmHg 13%
13:00 +45°C° 0 mm 4 mps 752 mmHg 12%
14:00 +45°C° 0 mm 4 mps 751 mmHg 11%
15:00 +46°C° 0 mm 5 mps 751 mmHg 10%
16:00 +44°C° 0 mm 4 mps 751 mmHg 11%
17:00 +42°C° 0 mm 4 mps 751 mmHg 12%
18:00 +39°C° 0 mm 3 mps 751 mmHg 13%
19:00 +37°C° 0 mm 3 mps 751 mmHg 14%
20:00 +36°C° 0 mm 3 mps 751 mmHg 15%
21:00 +35°C° 0 mm 2 mps 752 mmHg 16%
22:00 +34°C° 0 mm 2 mps 752 mmHg 17%
23:00 +34°C° 0 mm 2 mps 752 mmHg 17%
Show more